Aeroporto :
LOGIN :

Iscrizione | Disclaimer

   EN    FR    IT 

 










Sommario :    VFR   VFR Marginale   IFR   IFR Intensivo   IFR Molto Intensivo
Visibilità : 
Base nubi : 
>= 8 km
>= 3000ft
5 / 8 km
1000 / 3000 ft
1500m / 5 km
500 / 1000 ft
800 / 1500m
200 / 500 ft
< 800m
< 200 ft
Simboli :   Temporali  Nebbia  Neve Forte  Precipitazioni Forti  Vento > 20 kt
SIGMETs :   Varie  Temporali  Ghiacco  Turbolenza  Onda orograficha  Ceneri Vulcaniche







- Altitudine del aeroporto : 160 ft
- Codice IATA : FMO


EDDG - Münster Osnabrück Int.

ULTIMO METAR :
  • 200450Z 10001KT CAVOK 16/10 Q1015 NOSIG

METARs OBSOLETI :
  • 200420Z VRB02KT CAVOK 16/10 Q1015 NOSIG
  • 200350Z 08003KT 360V140 CAVOK 17/09 Q1015 NOSIG
  • 200320Z 08004KT 030V130 CAVOK 17/09 Q1015 NOSIG
  • 200250Z 07004KT 030V160 CAVOK 17/10 Q1015 NOSIG
  • 200220Z 07004KT 020V130 CAVOK 17/10 Q1015 NOSIG

TAF TAF EDDG
Valido dal 20 a 00 ore il 21 a 00 ore UTC


192300Z 2000/2024 05005KT CAVOK
TEMPO 2000/2013 VRB03KT
TEMPO 2013/2018 35005KT
Nessun NOTAM noto per questo aeroporto.



MetMap, La meteo Aeronautica in un colpo d'occhio ! - Copyright ORBIFLY Dicembre 2007 - Disclaimer

ORBIFLY MET'MAP TEAM :

Programmazione e sviluppo : Alexandra Zaïnal
Concezione e sviluppo : Baudouin d'Aumeries
Co-Programmazione e sviluppo : Marc-Olivier Méhu
Supporto tecnico e logistico : Manuel Goepfert
Aiuto per la traduzione : Arnaldo La Scala

Contatto : metmap@orbifly.com




FONTI E CREDITI :

   NOAA